Pamplona/Noain, Spain

10:53 AM CET on February 24, 2017 (GMT +0100)
Pamplona

Weather History for LEPP - December, 2012

Change the Weather History Date:

Monday, December 10, 2012

  Actual Average Record
Temperature  
Mean Temperature 38 °F -  
Max Temperature 48 °F 46 °F 55 °F (2010)
Min Temperature 28 °F 35 °F 28 °F (2012)
Degree Days  
Heating Degree Days 27    
Moisture  
Dew Point 34 °F    
Average Humidity 78    
Maximum Humidity 100    
Minimum Humidity 58    
Precipitation  
Precipitation 0.00 in - - ()
Sea Level Pressure  
Sea Level Pressure 30.15 in    
Wind  
Wind Speed 6 mph ()    
Max Wind Speed 17 mph    
Max Gust Speed -    
Visibility 6.2 miles    
Events      
Averages and records for this station are not official NWS values.
T = Trace of Precipitation, MM = Missing Value Source: Averaged Metar Reports

Daily Weather History Graph

Daily Weather History Graph

Search for Another Location

Airport or City:

Trip Planner

Search our weather history database for the weather conditions in past years. The results will help you decide how hot, cold, wet, or windy it might be!

Date:

Astronomy

Dec. 10, 2012 Rise Set
Actual Time 8:26 AM CET 5:32 PM CET
Civil Twilight 7:54 AM CET 6:04 PM CET
Nautical Twilight 7:18 AM CET 6:40 PM CET
Astronomical Twilight 6:44 AM CET 7:14 PM CET
Moon 4:49 AM CET (12/10) 3:13 PM CET (12/10)
Length of Visible Light 10h 10m
Length of Day
9h 06m
Waning Crescent, 12% of the Moon is Illuminated
Dec 10
Waning Crescent
Dec 13
New
Dec 20
First Quarter
Dec 28
Full
Jan 5
Last Quarter

Hourly Weather History & Observations

Time (CET) Temp. Windchill Dew Point Humidity Pressure Visibility Wind Dir Wind Speed Gust Speed Precip Events Conditions
12:00 AM 32.0 °F - 30.2 °F 93% 30.21 in 6.2 mi Variable 2.3 mph - N/A   Partly Cloudy
6:00 AM 28.4 °F - 28.4 °F 100% 30.18 in 6.2 mi NE 1.2 mph - N/A   Scattered Clouds
6:30 AM 28.4 °F - 28.4 °F 100% 30.15 in 6.2 mi ENE 2.3 mph - N/A   Scattered Clouds
7:00 AM 28.4 °F - 26.6 °F 93% 30.15 in - Variable 1.2 mph - N/A   Clear
7:30 AM 28.4 °F - 28.4 °F 100% 30.18 in - East 1.2 mph - N/A   Clear
8:00 AM 28.4 °F - 26.6 °F 93% 30.18 in - Calm Calm - N/A   Clear
8:30 AM 30.2 °F - 28.4 °F 93% 30.18 in - Calm Calm - N/A   Clear
9:00 AM 30.2 °F - 28.4 °F 93% 30.18 in - Variable 2.3 mph - N/A   Clear
10:00 AM 35.6 °F - 32.0 °F 87% 30.18 in - Calm Calm - N/A   Clear
10:30 AM 37.4 °F - 33.8 °F 87% 30.18 in - Calm Calm - N/A   Clear
11:00 AM 39.2 °F 35.0 °F 33.8 °F 81% 30.18 in - NW 5.8 mph - N/A   Clear
11:30 AM 42.8 °F 40.1 °F 35.6 °F 76% 30.18 in - NW 4.6 mph - N/A   Clear
12:00 PM 42.8 °F 37.5 °F 33.8 °F 70% 30.18 in - NW 9.2 mph - N/A   Clear
12:30 PM 44.6 °F 38.8 °F 33.8 °F 66% 30.18 in - NNW 11.5 mph - N/A   Clear
1:00 PM 46.4 °F 41.1 °F 33.8 °F 62% 30.15 in - NNW 11.5 mph - N/A   Clear
1:30 PM 48.2 °F - 33.8 °F 58% 30.15 in - North 9.2 mph - N/A   Clear
2:00 PM 48.2 °F - 33.8 °F 58% 30.12 in - NNW 12.7 mph - N/A   Clear
2:30 PM 48.2 °F - 33.8 °F 58% 30.12 in - North 17.3 mph - N/A   Clear
3:00 PM 48.2 °F - 35.6 °F 62% 30.12 in - NNW 16.1 mph - N/A   Clear
3:30 PM 46.4 °F 39.8 °F 35.6 °F 66% 30.12 in - NNW 16.1 mph - N/A   Clear
4:00 PM 46.4 °F 39.8 °F 33.8 °F 62% 30.12 in - NNW 16.1 mph - N/A   Clear
4:30 PM 46.4 °F 39.8 °F 35.6 °F 66% 30.12 in - NNW 16.1 mph - N/A   Clear
5:00 PM 44.6 °F 37.2 °F 35.6 °F 71% 30.12 in - NNW 17.3 mph - N/A   Clear
5:30 PM 42.8 °F 35.8 °F 33.8 °F 70% 30.12 in - NNW 13.8 mph - N/A   Clear
6:00 PM 42.8 °F 36.2 °F 33.8 °F 70% 30.12 in - NNW 12.7 mph - N/A   Clear
6:30 PM 42.8 °F 36.6 °F 35.6 °F 76% 30.12 in - NNW 11.5 mph - N/A   Clear
7:00 PM 42.8 °F 36.6 °F 35.6 °F 76% 30.12 in - NNW 11.5 mph - N/A   Clear
7:30 PM 42.8 °F 37.0 °F 35.6 °F 76% 30.15 in - NNW 10.4 mph - N/A   Clear
8:00 PM 42.8 °F 38.0 °F 35.6 °F 76% 30.15 in - NNW 8.1 mph - N/A   Clear
8:30 PM 42.8 °F 39.3 °F 35.6 °F 76% 30.15 in - NW 5.8 mph - N/A   Clear
9:00 PM 42.8 °F 38.0 °F 35.6 °F 76% 30.15 in - NNW 8.1 mph - N/A   Clear
9:30 PM 42.8 °F 39.3 °F 37.4 °F 81% 30.15 in - NNW 5.8 mph - N/A   Clear
10:00 PM 42.8 °F 37.5 °F 37.4 °F 81% 30.15 in - NW 9.2 mph - N/A   Clear
10:30 PM 42.8 °F 38.0 °F 39.2 °F 87% 30.15 in - NW 8.1 mph - N/A   Clear
11:00 PM 42.8 °F 38.6 °F 39.2 °F 87% 30.15 in - NNW 6.9 mph - N/A   Clear
11:30 PM 42.8 °F 39.3 °F 39.2 °F 87% 30.15 in - NNW 5.8 mph - N/A   Clear